Bakersfield, CA

11:36 PM PDT on May 25, 2018 (GMT -0700)
Meadows

Weather History for KBFL - November, 2012

Change the Weather History Date:

Thursday, November 22, 2012

  Actual Average Record
Temperature  
Mean Temperature 57 °F 53 °F  
Max Temperature 66 °F 63 °F 80 °F (1945)
Min Temperature 48 °F 43 °F 27 °F (1931)
Degree Days  
Heating Degree Days 8    
Month to date heating degree days 149  
Since 1 July heating degree days 185  
Cooling Degree Days 0    
Month to date cooling degree days 9  
Year to date cooling degree days 2579  
Growing Degree Days 7 (Base 50)    
Moisture  
Dew Point 47 °F    
Average Humidity 70    
Maximum Humidity 83    
Minimum Humidity 56    
Precipitation  
Precipitation 0.00 in 0.03 in 0.65 in (1899)
Month to date precipitation 0.06 0.45  
Year to date precipitation 3.72 5.26  
Since 1 July precipitation 0.10  
Snow  
Snow 0.00 in - - ()
Month to date snowfall 0.0  
Since 1 July snowfall 0.0  
Since 1 September snowfall 0.0  
Snow Depth 0.00 in    
Sea Level Pressure  
Sea Level Pressure 30.19 in    
Wind  
Wind Speed 4 mph (ESE)    
Max Wind Speed 8 mph    
Max Gust Speed 9 mph    
Visibility 8 miles    
Events      
T = Trace of Precipitation, MM = Missing Value Source: NWS Daily Summary

Daily Weather History Graph

Daily Weather History Graph

Search for Another Location

Airport or City:

Astronomy

Nov. 22, 2012 Rise Set
Actual Time 6:39 AM PST 4:45 PM PST
Civil Twilight 6:11 AM PST 5:13 PM PST
Nautical Twilight 5:40 AM PST 5:44 PM PST
Astronomical Twilight 5:09 AM PST 6:14 PM PST
Moon 1:24 PM PST (11/22) 1:14 AM PST (11/22)
Length of Visible Light 11h 01m
Length of Day
10h 06m
Waxing Gibbous, 72% of the Moon is Illuminated
Nov 22
Waxing Gibbous
Nov 28
Full
Dec 6
Last Quarter
Dec 13
New
Dec 19
First Quarter

Hourly Weather History & Observations

Time (PST) Temp. Dew Point Humidity Pressure Visibility Wind Dir Wind Speed Gust Speed Precip Events Conditions
12:54 AM 55.9 °F 48.0 °F 75% 30.17 in 7.0 mi WNW 5.8 mph - N/A   Overcast
1:54 AM 55.0 °F 48.9 °F 80% 30.17 in 7.0 mi NNW 3.5 mph - N/A   Overcast
2:54 AM 55.0 °F 48.0 °F 77% 30.17 in 7.0 mi Calm Calm - N/A   Overcast
3:54 AM 52.0 °F 46.0 °F 80% 30.16 in 6.0 mi NNE 4.6 mph - N/A   Haze
4:54 AM 51.1 °F 44.1 °F 77% 30.17 in 8.0 mi NE 3.5 mph - N/A   Overcast
5:05 AM 50.0 °F 44.6 °F 82% 30.18 in 7.0 mi Calm Calm - N/A   Overcast
5:54 AM 52.0 °F 45.0 °F 77% 30.18 in 7.0 mi Calm Calm - N/A   Overcast
6:54 AM 53.1 °F 46.9 °F 80% 30.20 in 7.0 mi Calm Calm - N/A   Overcast
7:54 AM 55.0 °F 48.9 °F 80% 30.22 in 6.0 mi NW 4.6 mph - N/A   Haze
8:54 AM 55.9 °F 48.9 °F 77% 30.23 in 8.0 mi WNW 4.6 mph - N/A   Overcast
9:29 AM 57.2 °F 48.2 °F 72% 30.24 in 8.0 mi Calm Calm - N/A   Overcast
9:54 AM 57.9 °F 48.9 °F 72% 30.23 in 8.0 mi Calm Calm - N/A   Scattered Clouds
10:54 AM 60.1 °F 48.9 °F 67% 30.22 in 9.0 mi SW 4.6 mph - N/A   Clear
11:54 AM 64.0 °F 48.9 °F 58% 30.19 in 10.0 mi Variable 3.5 mph - N/A   Scattered Clouds
12:54 PM 63.0 °F 48.9 °F 60% 30.17 in 10.0 mi Calm Calm - N/A   Partly Cloudy
1:17 PM 64.4 °F 48.2 °F 56% 30.17 in 10.0 mi SW 6.9 mph - N/A   Mostly Cloudy
1:34 PM 62.6 °F 48.2 °F 59% 30.17 in 10.0 mi Calm Calm - N/A   Mostly Cloudy
1:54 PM 64.0 °F 48.0 °F 56% 30.16 in 10.0 mi SSW 5.8 mph - N/A   Partly Cloudy
2:54 PM 64.0 °F 48.0 °F 56% 30.16 in 10.0 mi Calm Calm - N/A   Overcast
3:54 PM 63.0 °F 48.0 °F 58% 30.17 in 10.0 mi South 4.6 mph - N/A   Clear
4:54 PM 61.0 °F 46.9 °F 60% 30.18 in 10.0 mi South 8.1 mph - N/A   Clear
5:54 PM 59.0 °F 46.9 °F 64% 30.19 in 10.0 mi SE 4.6 mph - N/A   Clear
6:54 PM 57.9 °F 46.9 °F 67% 30.21 in 8.0 mi East 3.5 mph - N/A   Clear
7:54 PM 57.0 °F 46.9 °F 69% 30.22 in 8.0 mi East 3.5 mph - N/A   Clear
8:54 PM 55.9 °F 46.0 °F 69% 30.23 in 8.0 mi East 4.6 mph - N/A   Clear
9:54 PM 55.0 °F 46.9 °F 74% 30.23 in 8.0 mi East 5.8 mph - N/A   Clear
10:54 PM 54.0 °F 46.0 °F 75% 30.23 in 8.0 mi East 4.6 mph - N/A   Clear
11:54 PM 50.0 °F 43.0 °F 77% 30.23 in 7.0 mi East 4.6 mph - N/A   Clear